Zurück zum Katalog

SL-12 DEB

AktivHEO
NORAD 48349·DEBRIS·🇷🇺 Russia

Gestartet May 19, 1990 von Baikonur Cosmodrome

Loading…

Nächste Überflüge (nächste 24 Stunden)

TLE

AktuellSource: Space-Track

Epoche: Sep 13, 2026, 03:36 UTC

1 48349U 90045H   26256.15017181  .00030028  00000-0  18531-1 0  9993
2 48349  65.0287 310.3304 4285394 332.6865  10.1338  6.66872680278147

Verfolge SL-12 DEB in Echtzeit mit AllMySat

Download on the App Store